Chicopee, MA

5:22 PM EDT on July 22, 2017 (GMT -0400)
Westover Air Reserve Base / Metropolitan Airport

Weather History for KCEF - October, 2012

Change the Weather History Date:

Friday, October 5, 2012

  Actual Average Record
Temperature  
Mean Temperature 67 °F -  
Max Temperature 78 °F 63 °F 84 °F (2007)
Min Temperature 57 °F 40 °F 26 °F (1996)
Cooling Degree Days 2    
Growing Degree Days 17 (Base 50)    
Moisture  
Dew Point 58 °F    
Average Humidity 94    
Maximum Humidity 100    
Minimum Humidity 44    
Precipitation  
Precipitation 0.01 in - - ()
Sea Level Pressure  
Sea Level Pressure 30.03 in    
Wind  
Wind Speed 1 mph (SSW)    
Max Wind Speed 7 mph    
Max Gust Speed -    
Visibility 2 miles    
Events Fog , Rain    
Averages and records for this station are not official NWS values.
T = Trace of Precipitation, MM = Missing Value Source: NWS Daily Summary

Daily Weather History Graph

Daily Weather History Graph

Search for Another Location

Airport or City:

Trip Planner

Search our weather history database for the weather conditions in past years. The results will help you decide how hot, cold, wet, or windy it might be!

Date:

Astronomy

Oct. 05, 2012 Rise Set
Actual Time 6:52 AM EDT 6:24 PM EDT
Civil Twilight 6:24 AM EDT 6:51 PM EDT
Nautical Twilight 5:51 AM EDT 7:24 PM EDT
Astronomical Twilight 5:18 AM EDT 7:56 PM EDT
Moon 9:40 PM EDT (10/5) 12:02 PM EDT (10/5)
Length of Visible Light 12h 27m
Length of Day
11h 31m
Waning Gibbous, 74% of the Moon is Illuminated
Oct 5
Waning Gibbous
Oct 8
Last Quarter
Oct 15
New
Oct 21
First Quarter
Oct 29
Full

Hourly Weather History & Observations

Time (EDT) Temp. Dew Point Humidity Pressure Visibility Wind Dir Wind Speed Gust Speed Precip Events Conditions
12:18 AM 62.6 °F 62.6 °F 100% 30.05 in 0.5 mi Calm Calm - N/A Fog Fog
12:32 AM 62.6 °F 62.6 °F 100% 30.04 in 0.5 mi Calm Calm - N/A Fog Fog
12:38 AM 62.6 °F 62.6 °F 100% 30.04 in 0.5 mi Calm Calm - N/A Fog Fog
12:53 AM 62.6 °F 62.6 °F 100% 30.04 in 0.2 mi Calm Calm - N/A Fog Fog
12:55 AM 62.4 °F 62.1 °F 99% 30.04 in 0.2 mi Calm Calm - 0.01 in Fog Fog
12:59 AM 62.6 °F 62.6 °F 100% 30.04 in 0.2 mi Calm Calm - N/A Fog Fog
1:00 AM 62.6 °F 62.6 °F 100% 30.04 in 0.5 mi Calm Calm - N/A Fog Fog
1:02 AM 62.6 °F 62.6 °F 100% 30.04 in 0.2 mi Calm Calm - N/A Fog Fog
1:10 AM 62.6 °F 62.6 °F 100% 30.04 in 0.2 mi Calm Calm - N/A Fog Fog
1:11 AM 62.6 °F 62.6 °F 100% 30.04 in 0.2 mi Calm Calm - N/A Fog Fog
1:26 AM 62.6 °F 60.8 °F 94% 30.04 in 0.2 mi Calm Calm - N/A Fog Fog
1:27 AM 62.6 °F 60.8 °F 94% 30.04 in 0.2 mi Calm Calm - N/A Fog Fog
1:33 AM 62.6 °F 60.8 °F 94% 30.05 in 0.2 mi Calm Calm - N/A Fog Fog
1:39 AM 62.6 °F 60.8 °F 94% 30.04 in 0.2 mi Calm Calm - N/A Fog Fog
1:43 AM 62.6 °F 60.8 °F 94% 30.04 in 0.2 mi Calm Calm - N/A Fog Fog
1:49 AM 60.8 °F 60.8 °F 100% 30.04 in 0.2 mi Calm Calm - N/A Fog Fog
1:55 AM 61.5 °F 61.3 °F 99% 30.04 in 0.2 mi SSE 3.5 mph - N/A Fog Fog
1:59 AM 60.8 °F 60.8 °F 100% 30.04 in 0.2 mi SSE 3.5 mph - N/A Fog Fog
2:28 AM 60.8 °F 60.8 °F 100% 30.04 in 0.2 mi Calm Calm - N/A Fog Fog
2:51 AM 59.0 °F 59.0 °F 100% 30.03 in 0.2 mi SW 3.5 mph - N/A Fog Fog
2:55 AM 59.7 °F 59.5 °F 99% 30.03 in 0.2 mi Calm Calm - N/A Fog Fog
3:00 AM 59.0 °F 59.0 °F 100% 30.03 in 0.2 mi SW 3.5 mph - N/A Fog Fog
3:11 AM 59.0 °F 59.0 °F 100% 30.03 in 0.2 mi Calm Calm - N/A Fog Fog
3:19 AM 59.0 °F 59.0 °F 100% 30.03 in 0.2 mi Calm Calm - N/A Fog Fog
3:23 AM 59.0 °F 59.0 °F 100% 30.03 in 0.2 mi Calm Calm - N/A Fog Fog
3:33 AM 59.0 °F 59.0 °F 100% 30.03 in 0.2 mi Calm Calm - N/A Fog Fog
3:47 AM 59.0 °F 59.0 °F 100% 30.03 in 0.2 mi Calm Calm - N/A Fog Fog
3:55 AM 58.6 °F 58.5 °F 99% 30.03 in 0.2 mi Calm Calm - N/A Fog Fog
3:57 AM 59.0 °F 59.0 °F 100% 30.03 in 0.2 mi Calm Calm - N/A Fog Fog
4:02 AM 59.0 °F 59.0 °F 100% 30.03 in 0.2 mi Calm Calm - N/A Fog Fog
4:15 AM 59.0 °F 59.0 °F 100% 30.03 in 0.2 mi Calm Calm - N/A Fog Fog
4:25 AM 59.0 °F 59.0 °F 100% 30.04 in 0.2 mi Calm Calm - N/A Fog Fog
4:41 AM 59.0 °F 57.2 °F 94% 30.03 in 0.2 mi Calm Calm - N/A Fog Fog
4:46 AM 59.0 °F 57.2 °F 94% 30.03 in 0.2 mi Calm Calm - N/A Fog Fog
4:49 AM 59.0 °F 57.2 °F 94% 30.03 in 0.2 mi Calm Calm - N/A Fog Fog
4:51 AM 59.0 °F 57.2 °F 94% 30.03 in 0.2 mi Calm Calm - N/A Fog Fog
4:53 AM 59.0 °F 57.2 °F 94% 30.03 in 0.5 mi Calm Calm - N/A Fog Fog
4:55 AM 58.3 °F 57.9 °F 99% 30.03 in 0.5 mi Calm Calm - N/A Fog Fog
5:05 AM 59.0 °F 57.2 °F 94% 30.04 in 0.2 mi Calm Calm - N/A Fog Fog
5:18 AM 59.0 °F 57.2 °F 94% 30.04 in 0.2 mi Calm Calm - N/A Fog Fog
5:21 AM 59.0 °F 57.2 °F 94% 30.04 in 0.2 mi Calm Calm - N/A Fog Fog
5:22 AM 59.0 °F 57.2 °F 94% 30.04 in 0.2 mi Calm Calm - N/A Fog Fog
5:27 AM 57.2 °F 57.2 °F 100% 30.04 in 0.5 mi Calm Calm - N/A Fog Fog
5:41 AM 57.2 °F 57.2 °F 100% 30.04 in 0.2 mi Calm Calm - N/A Fog Fog
5:45 AM 57.2 °F 57.2 °F 100% 30.04 in 0.2 mi Calm Calm - N/A Fog Fog
5:47 AM 57.2 °F 57.2 °F 100% 30.04 in 0.2 mi Calm Calm - N/A Fog Fog
5:48 AM 57.2 °F 57.2 °F 100% 30.04 in 0.2 mi Calm Calm - N/A Fog Fog
5:55 AM 57.6 °F 57.4 °F 99% 30.04 in 0.2 mi Calm Calm - N/A Fog Fog
5:59 AM 57.2 °F 57.2 °F 100% 30.04 in 0.2 mi Calm Calm - N/A Fog Fog
6:01 AM 57.2 °F 57.2 °F 100% 30.04 in 0.2 mi Calm Calm - N/A Fog Fog
6:08 AM 57.2 °F 57.2 °F 100% 30.04 in 0.5 mi Calm Calm - N/A Fog Fog
6:11 AM 57.2 °F 57.2 °F 100% 30.04 in 0.5 mi Calm Calm - N/A Fog Fog
6:20 AM 57.2 °F 57.2 °F 100% 30.04 in 0.2 mi Calm Calm - N/A Fog Fog
6:24 AM 57.2 °F 57.2 °F 100% 30.04 in 0.2 mi Calm Calm - N/A Fog Fog
6:37 AM 57.2 °F 57.2 °F 100% 30.05 in 0.2 mi Calm Calm - N/A Fog Fog
6:43 AM 57.2 °F 57.2 °F 100% 30.05 in 0.2 mi SSW 3.5 mph - N/A Fog Fog
6:55 AM 57.6 °F 57.2 °F 99% 30.05 in 0.2 mi Calm Calm - N/A Fog Fog
7:06 AM 57.2 °F 57.2 °F 100% 30.05 in 0.2 mi SSW 3.5 mph - N/A Fog Fog
7:08 AM 57.2 °F 57.2 °F 100% 30.05 in 0.2 mi SSW 4.6 mph - N/A Fog Fog
7:11 AM 57.2 °F 57.2 °F 100% 30.05 in 0.2 mi SW 4.6 mph - N/A Fog Fog
7:21 AM 57.2 °F 57.2 °F 100% 30.05 in 0.2 mi SW 3.5 mph - N/A Fog Fog
7:23 AM 57.2 °F 57.2 °F 100% 30.05 in 0.2 mi Calm Calm - N/A Fog Fog
7:38 AM 57.2 °F 57.2 °F 100% 30.05 in 0.2 mi SW 4.6 mph - N/A Fog Fog
7:39 AM 57.2 °F 57.2 °F 100% 30.05 in 0.2 mi SW 4.6 mph - N/A Fog Fog
7:55 AM 57.0 °F 56.8 °F 99% 30.05 in 0.2 mi SW 3.5 mph - N/A Fog Fog
8:00 AM 57.2 °F 57.2 °F 100% 30.05 in 0.2 mi Variable 3.5 mph - N/A Fog Fog
8:04 AM 57.2 °F 57.2 °F 100% 30.05 in 0.2 mi South 3.5 mph - N/A Fog Fog
8:05 AM 57.2 °F 57.2 °F 100% 30.05 in 0.2 mi South 3.5 mph - N/A Fog Fog
8:06 AM 57.2 °F 57.2 °F 100% 30.05 in 0.2 mi South 3.5 mph - N/A Fog Fog
8:07 AM 57.2 °F 57.2 °F 100% 30.05 in 0.2 mi South 3.5 mph - N/A Fog Fog
8:08 AM 57.2 °F 57.2 °F 100% 30.05 in 0.2 mi Calm Calm - N/A Fog Fog
8:10 AM 57.2 °F 57.2 °F 100% 30.05 in 0.2 mi Calm Calm - N/A Fog Fog
8:12 AM 57.2 °F 57.2 °F 100% 30.05 in 0.5 mi Calm Calm - N/A Fog Fog
8:19 AM 57.2 °F 57.2 °F 100% 30.05 in 0.2 mi Calm Calm - N/A Fog Fog
8:23 AM 57.2 °F 57.2 °F 100% 30.05 in 0.2 mi Calm Calm - N/A Fog Fog
8:25 AM 57.2 °F 57.2 °F 100% 30.05 in 0.2 mi Calm Calm - N/A Fog Fog
8:26 AM 57.2 °F 57.2 °F 100% 30.05 in 0.2 mi SSE 3.5 mph - N/A Fog Fog
8:53 AM 57.2 °F 57.2 °F 100% 30.06 in 0.5 mi SE 2.3 mph - N/A Fog Fog
8:55 AM 57.7 °F 57.4 °F 99% 30.06 in 1.2 mi Calm Calm - N/A   Overcast
9:26 AM 59.0 °F 59.0 °F 100% 30.06 in 2.0 mi SSW 3.5 mph - N/A   Overcast
9:55 AM 59.2 °F 58.8 °F 99% 30.05 in 3.0 mi SW 4.6 mph - N/A   Mostly Cloudy
10:01 AM 59.0 °F 59.0 °F 100% 30.05 in 10.0 mi Variable 3.5 mph - N/A   Mostly Cloudy
10:13 AM 60.8 °F 60.8 °F 100% 30.05 in 7.0 mi South 5.8 mph - N/A   Scattered Clouds
10:55 AM 62.8 °F 62.4 °F 99% 30.04 in 10.0 mi Calm Calm - N/A   Partly Cloudy
11:55 AM 69.8 °F 59.5 °F 70% 30.03 in 10.0 mi Variable 4.6 mph - N/A   Clear
12:55 PM 73.4 °F 59.0 °F 61% 30.00 in 10.0 mi Calm Calm - N/A   Clear
1:07 PM 73.4 °F 59.0 °F 61% 29.99 in 10.0 mi Calm Calm - N/A Rain Light Rain
1:55 PM 76.1 °F 57.7 °F 53% 29.97 in 10.0 mi South 6.9 mph - N/A   Clear
2:55 PM 77.5 °F 54.9 °F 45% 29.95 in 10.0 mi SW 5.8 mph - N/A   Clear
3:55 PM 77.9 °F 54.5 °F 44% 29.94 in 10.0 mi West 4.6 mph - N/A   Clear
4:55 PM 76.8 °F 54.9 °F 46% 29.93 in 10.0 mi SSW 6.9 mph - N/A   Clear
5:55 PM 72.1 °F 57.4 °F 60% 29.94 in 10.0 mi South 5.8 mph - N/A   Clear
6:55 PM 67.5 °F 57.2 °F 70% 29.94 in 10.0 mi South 4.6 mph - N/A   Clear
7:55 PM 64.8 °F 57.4 °F 77% 29.94 in 10.0 mi SSE 4.6 mph - N/A   Clear
8:55 PM 63.5 °F 57.9 °F 82% 29.94 in 10.0 mi South 6.9 mph - N/A   Clear
9:51 PM 60.8 °F 59.0 °F 94% 29.94 in 10.0 mi Calm Calm - N/A   Light Drizzle
9:55 PM 61.3 °F 58.5 °F 90% 29.94 in 10.0 mi Calm Calm - 0.00 in   Light Drizzle
9:59 PM 59.0 °F 57.2 °F 94% 29.94 in 10.0 mi Calm Calm - N/A   Clear
10:55 PM 57.6 °F 57.0 °F 98% 29.94 in 10.0 mi SSE 3.5 mph - 0.00 in   Clear
11:55 PM 59.4 °F 58.6 °F 97% 29.91 in 10.0 mi Calm Calm - N/A   Clear